ASL22Q LYTV-LYBE

Flight info

Callsign ASL22Q
Flight time 0h 38m
Altitude 29000
Route NIK DCT ELGEB
Aircraft A320/M-SDE3FGHIRWY/LB1

Departure

Time 2026-05-05 16:29
Airport Tivat Airport (LYTV)

Arrival

Time 2026-05-05 17:07
Airport Belgrade Nikola Tesla Airport (LYBE)
Time Latitude Longitude Altitude Speed Heading
2026-05-05 15:59 42.41119 18.71793 41 ft 0 kts 139°
2026-05-05 16:00 42.41118 18.71793 41 ft 0 kts 139°
2026-05-05 16:03 42.41119 18.71793 34 ft 0 kts 139°
2026-05-05 16:20 42.41100 18.71788 36 ft 8 kts 199°
2026-05-05 16:21 42.41002 18.71849 36 ft 0 kts 203°
2026-05-05 16:24 42.40992 18.71838 32 ft 11 kts 218°
2026-05-05 16:25 42.40900 18.71816 32 ft 17 kts 141°
2026-05-05 16:25 42.40680 18.72081 29 ft 27 kts 137°
2026-05-05 16:25 42.40533 18.72248 32 ft 28 kts 139°
2026-05-05 16:26 42.40225 18.72612 32 ft 31 kts 139°
2026-05-05 16:26 42.39928 18.72955 28 ft 39 kts 140°
2026-05-05 16:27 42.39757 18.73162 32 ft 13 kts 144°
2026-05-05 16:27 42.39682 18.73246 29 ft 15 kts 145°
2026-05-05 16:27 42.39615 18.73292 31 ft 3 kts 78°
2026-05-05 16:27 42.39636 18.73310 32 ft 5 kts 354°
2026-05-05 16:28 42.39656 18.73291 32 ft 1 kts 317°
2026-05-05 16:28 42.39667 18.73277 31 ft 4 kts 316°
2026-05-05 16:28 42.39805 18.73112 33 ft 69 kts 319°
2026-05-05 16:28 42.40387 18.72421 34 ft 148 kts 319°
2026-05-05 16:29 42.41239 18.71439 641 ft 161 kts 320°
2026-05-05 16:29 42.42037 18.70246 1352 ft 181 kts 291°
2026-05-05 16:29 42.42062 18.68484 1998 ft 199 kts 247°
2026-05-05 16:29 42.41193 18.67021 2585 ft 205 kts 218°
2026-05-05 16:30 42.40041 18.65847 3221 ft 208 kts 215°
2026-05-05 16:30 42.38864 18.64696 4086 ft 208 kts 216°
2026-05-05 16:30 42.37696 18.63532 4959 ft 209 kts 217°
2026-05-05 16:30 42.36534 18.62341 5761 ft 211 kts 217°
2026-05-05 16:31 42.35338 18.61173 6534 ft 214 kts 206°
2026-05-05 16:31 42.33888 18.60721 7225 ft 219 kts 177°
2026-05-05 16:31 42.32425 18.61294 7921 ft 224 kts 148°
2026-05-05 16:31 42.31349 18.62817 8645 ft 229 kts 117°
2026-05-05 16:32 42.30732 18.64809 9404 ft 231 kts 107°
2026-05-05 16:32 42.30633 18.66962 10127 ft 234 kts 75°
2026-05-05 16:32 42.31402 18.68903 10653 ft 245 kts 43°
2026-05-05 16:32 42.32924 18.70100 10964 ft 267 kts 19°
2026-05-05 16:33 42.34745 18.70984 11282 ft 288 kts 19°
2026-05-05 16:33 42.36667 18.71910 11918 ft 296 kts 19°
2026-05-05 16:33 42.38623 18.72863 12675 ft 299 kts 19°
2026-05-05 16:33 42.40599 18.73836 13448 ft 303 kts 19°
2026-05-05 16:34 42.42591 18.74824 14160 ft 306 kts 19°
2026-05-05 16:34 42.44558 18.75802 14820 ft 308 kts 19°
2026-05-05 16:34 42.46587 18.76812 15501 ft 311 kts 19°
2026-05-05 16:34 42.48626 18.77831 16196 ft 314 kts 19°
2026-05-05 16:35 42.50692 18.78866 16859 ft 317 kts 19°
2026-05-05 16:35 42.52773 18.79911 17507 ft 320 kts 18°
2026-05-05 16:35 42.54874 18.80961 18167 ft 323 kts 18°
2026-05-05 16:35 42.56992 18.82019 18742 ft 326 kts 18°
2026-05-05 16:36 42.59108 18.83078 19315 ft 328 kts 18°
2026-05-05 16:36 42.61257 18.84157 19883 ft 330 kts 18°
2026-05-05 16:36 42.63426 18.85247 20462 ft 332 kts 18°
2026-05-05 16:36 42.65611 18.86344 21008 ft 335 kts 18°
2026-05-05 16:37 42.67806 18.87448 21543 ft 337 kts 18°
2026-05-05 16:37 42.70012 18.88558 22064 ft 340 kts 18°
2026-05-05 16:37 42.72238 18.89682 22590 ft 342 kts 18°
2026-05-05 16:37 42.74452 18.90800 23118 ft 344 kts 18°
2026-05-05 16:38 42.76733 18.91960 23642 ft 347 kts 20°
2026-05-05 16:38 42.78876 18.93491 23956 ft 357 kts 31°
2026-05-05 16:38 42.80990 18.95400 24079 ft 370 kts 31°
2026-05-05 16:38 42.83173 18.97382 24196 ft 382 kts 31°
2026-05-05 16:39 42.85428 18.99434 24314 ft 394 kts 31°
2026-05-05 16:39 42.87741 19.01540 24431 ft 406 kts 31°
2026-05-05 16:39 42.90095 19.03681 24552 ft 416 kts 31°
2026-05-05 16:39 42.92523 19.05885 24798 ft 422 kts 31°
2026-05-05 16:40 42.94980 19.08120 25135 ft 425 kts 31°
2026-05-05 16:40 42.97440 19.10364 25504 ft 427 kts 31°
2026-05-05 16:40 42.99920 19.12629 25891 ft 429 kts 31°
2026-05-05 16:40 43.02406 19.14900 26280 ft 431 kts 31°
2026-05-05 16:41 43.04902 19.17183 26675 ft 433 kts 31°
2026-05-05 16:41 43.07407 19.19479 27049 ft 435 kts 31°
2026-05-05 16:41 43.09924 19.21792 27433 ft 437 kts 31°
2026-05-05 16:41 43.12450 19.24116 27811 ft 439 kts 31°
2026-05-05 16:42 43.14988 19.26446 28207 ft 440 kts 31°
2026-05-05 16:42 43.17539 19.28785 28593 ft 441 kts 31°
2026-05-05 16:42 43.20088 19.31127 28973 ft 440 kts 31°
2026-05-05 16:42 43.22629 19.33463 29043 ft 439 kts 31°
2026-05-05 16:43 43.27696 19.38127 29040 ft 438 kts 31°
2026-05-05 16:43 43.32749 19.42793 29039 ft 437 kts 31°
2026-05-05 16:44 43.37794 19.47458 29028 ft 437 kts 31°
2026-05-05 16:44 43.42838 19.52134 29011 ft 437 kts 31°
2026-05-05 16:45 43.47878 19.56825 29022 ft 437 kts 31°
2026-05-05 16:45 43.52916 19.61517 29004 ft 437 kts 31°
2026-05-05 16:46 43.57959 19.66219 29005 ft 437 kts 31°
2026-05-05 16:46 43.62988 19.70910 29014 ft 436 kts 31°
2026-05-05 16:47 43.68005 19.75613 29002 ft 436 kts 31°
2026-05-05 16:47 43.73032 19.80334 29005 ft 436 kts 31°
2026-05-05 16:48 43.78052 19.85050 28989 ft 435 kts 31°
2026-05-05 16:48 43.83058 19.89766 28977 ft 435 kts 31°
2026-05-05 16:49 43.88057 19.94485 28977 ft 434 kts 31°
2026-05-05 16:49 43.90556 19.96848 28871 ft 433 kts 32°
2026-05-05 16:49 43.93053 19.99213 27651 ft 440 kts 32°
2026-05-05 16:50 43.95585 20.01615 26994 ft 436 kts 32°
2026-05-05 16:50 43.98055 20.03968 26535 ft 426 kts 32°
2026-05-05 16:50 44.00491 20.06288 25878 ft 423 kts 32°
2026-05-05 16:50 44.02907 20.08584 25234 ft 420 kts 32°
2026-05-05 16:51 44.05302 20.10863 24614 ft 416 kts 33°
2026-05-05 16:51 44.07684 20.13134 23986 ft 414 kts 33°
2026-05-05 16:51 44.10049 20.15385 23334 ft 411 kts 32°
2026-05-05 16:51 44.12545 20.17252 22677 ft 404 kts 22°
2026-05-05 16:52 44.15196 20.18447 22057 ft 399 kts 12°
2026-05-05 16:52 44.17928 20.18965 21456 ft 395 kts
2026-05-05 16:52 44.20661 20.18899 20870 ft 391 kts 358°
2026-05-05 16:52 44.23367 20.18759 20305 ft 388 kts 359°
2026-05-05 16:53 44.26056 20.18629 19749 ft 385 kts 359°
2026-05-05 16:53 44.28728 20.18502 19219 ft 383 kts 359°
2026-05-05 16:53 44.31384 20.18377 18682 ft 380 kts 359°
2026-05-05 16:53 44.34021 20.18251 18153 ft 377 kts 359°
2026-05-05 16:54 44.36637 20.18125 17586 ft 374 kts 359°
2026-05-05 16:54 44.39220 20.17998 17051 ft 369 kts 359°
2026-05-05 16:54 44.41777 20.17870 16522 ft 366 kts 359°
2026-05-05 16:54 44.44273 20.17744 15974 ft 359 kts 359°
2026-05-05 16:55 44.46745 20.17619 15444 ft 344 kts 359°
2026-05-05 16:55 44.49129 20.17502 14917 ft 344 kts 359°
2026-05-05 16:55 44.51522 20.17387 14377 ft 343 kts 359°
2026-05-05 16:55 44.53902 20.17273 13831 ft 341 kts 359°
2026-05-05 16:56 44.56242 20.17158 13247 ft 339 kts 359°
2026-05-05 16:56 44.58593 20.17039 12696 ft 337 kts 359°
2026-05-05 16:56 44.60955 20.16917 12156 ft 346 kts 359°
2026-05-05 16:56 44.63426 20.16793 11693 ft 354 kts 359°
2026-05-05 16:57 44.65861 20.16674 11255 ft 354 kts 359°
2026-05-05 16:57 44.68286 20.16555 10793 ft 339 kts 359°
2026-05-05 16:57 44.70587 20.16439 10296 ft 324 kts 359°
2026-05-05 16:57 44.72761 20.16325 9801 ft 312 kts 357°
2026-05-05 16:58 44.74889 20.15740 9252 ft 304 kts 341°
2026-05-05 16:58 44.76757 20.14352 8701 ft 298 kts 324°
2026-05-05 16:58 44.78224 20.12367 8174 ft 293 kts 308°
2026-05-05 16:58 44.79322 20.09985 7645 ft 287 kts 301°
2026-05-05 16:59 44.80361 20.07609 7128 ft 283 kts 301°
2026-05-05 16:59 44.81389 20.05273 6616 ft 279 kts 301°
2026-05-05 16:59 44.82407 20.02964 6193 ft 275 kts 301°
2026-05-05 16:59 44.83420 20.00668 5935 ft 277 kts 301°
2026-05-05 17:00 44.84432 19.98369 5686 ft 274 kts 301°
2026-05-05 17:00 44.85506 19.96156 5421 ft 274 kts 313°
2026-05-05 17:00 44.87079 19.94692 5171 ft 274 kts 340°
2026-05-05 17:00 44.88964 19.94407 4930 ft 275 kts
2026-05-05 17:01 44.90737 19.95354 4687 ft 275 kts 32°
2026-05-05 17:01 44.92365 19.96783 4430 ft 274 kts 33°
2026-05-05 17:01 44.93835 19.98443 4187 ft 267 kts 56°
2026-05-05 17:01 44.94460 20.00824 3968 ft 257 kts 91°
2026-05-05 17:02 44.94295 20.02448 3819 ft 251 kts 112°
2026-05-05 17:02 44.93434 20.04543 3602 ft 245 kts 124°
2026-05-05 17:02 44.92526 20.06574 3373 ft 243 kts 123°
2026-05-05 17:02 44.91658 20.08590 3168 ft 238 kts 123°
2026-05-05 17:03 44.90815 20.10542 3047 ft 228 kts 123°
2026-05-05 17:03 44.90013 20.12397 2890 ft 214 kts 123°
2026-05-05 17:03 44.89278 20.14086 2642 ft 196 kts 123°
2026-05-05 17:03 44.88592 20.15647 2384 ft 177 kts 123°
2026-05-05 17:04 44.87976 20.17044 2190 ft 157 kts 123°
2026-05-05 17:04 44.87432 20.18279 1981 ft 144 kts 124°
2026-05-05 17:04 44.86915 20.19450 1795 ft 139 kts 124°
2026-05-05 17:04 44.86410 20.20593 1615 ft 136 kts 124°
2026-05-05 17:05 44.85914 20.21717 1437 ft 134 kts 124°
2026-05-05 17:05 44.85417 20.22841 1250 ft 136 kts 123°
2026-05-05 17:05 44.84917 20.23972 1087 ft 137 kts 123°
2026-05-05 17:05 44.84412 20.25113 940 ft 138 kts 122°
2026-05-05 17:06 44.83908 20.26254 790 ft 136 kts 123°
2026-05-05 17:06 44.83401 20.27389 621 ft 137 kts 123°
2026-05-05 17:06 44.82898 20.28539 456 ft 138 kts 122°
2026-05-05 17:06 44.82396 20.29682 330 ft 130 kts 123°
2026-05-05 17:07 44.81976 20.30621 323 ft 90 kts 122°
2026-05-05 17:07 44.81734 20.31165 320 ft 39 kts 130°
2026-05-05 17:07 44.81622 20.31224 321 ft 21 kts 176°
2026-05-05 17:07 44.81482 20.31160 323 ft 22 kts 218°
2026-05-05 17:08 44.81486 20.31002 322 ft 18 kts 301°
2026-05-05 17:08 44.81559 20.30845 323 ft 20 kts 304°
2026-05-05 17:08 44.81643 20.30666 323 ft 23 kts 301°
2026-05-05 17:08 44.81729 20.30461 323 ft 26 kts 301°
2026-05-05 17:09 44.81827 20.30239 323 ft 28 kts 302°
2026-05-05 17:09 44.81935 20.29999 323 ft 30 kts 302°
2026-05-05 17:09 44.82044 20.29750 324 ft 26 kts 302°
2026-05-05 17:09 44.82109 20.29602 324 ft 7 kts 303°
2026-05-05 17:10 44.82079 20.29507 324 ft 17 kts 211°
2026-05-05 17:10 44.82030 20.29430 324 ft 10 kts 285°
2026-05-05 17:10 44.82055 20.29370 323 ft 0 kts 302°